Location: ?ejeti?ky
(50.4060°N, 14.9016°E)
Time: 21:11:39
(UTC+00:00)

ISS - Pass Details

Date: 04 December 2021
Orbit: 413 x 422 km, 51.6° (Epoch: 23 January)

Event Time Altitude Azimuth Distance (km) Brightness Sun altitude
Rises 16:51:40 0° 287° (WNW) 2,385 1.1 -17.2°
Reaches altitude 10° 16:53:49 10° 281° (W) 1,516 0.1 -17.5°
Maximum altitude 16:57:06 47° 207° (SSW) 573 -2.9 -18.0°
Enters shadow 16:58:35 27° 148° (SSE) 854 -2.4 -18.2°
